ACA1237 KPBI-CYYZ

Flight info

Callsign ACA1237
Flight time N/A
Altitude 35000
Route SLIDZ3 LENDS AR16 SEELO GARIC Q129 PYTON BFD LINNG LINNG3
Aircraft A321/M-SDE3FGHIRWY/LB1

Departure

Time N/A
Airport Palm Beach International Airport (KPBI)

Arrival

Time 2026-05-03 22:33
Airport Toronto Pearson International Airport (CYYZ)
Time Latitude Longitude Altitude Speed Heading
2026-05-03 22:04 42.18559 -78.80921 33418 ft 410 kts 336°
2026-05-03 22:04 42.21233 -78.82198 32918 ft 405 kts 336°
2026-05-03 22:05 42.23876 -78.83462 32396 ft 401 kts 336°
2026-05-03 22:05 42.26486 -78.84713 31898 ft 396 kts 336°
2026-05-03 22:05 42.29075 -78.85956 31395 ft 392 kts 336°
2026-05-03 22:05 42.31628 -78.87181 30901 ft 388 kts 336°
2026-05-03 22:06 42.34154 -78.88395 30414 ft 383 kts 336°
2026-05-03 22:06 42.36652 -78.89599 29922 ft 379 kts 336°
2026-05-03 22:06 42.39117 -78.90789 29408 ft 373 kts 336°
2026-05-03 22:06 42.41540 -78.91958 28958 ft 366 kts 336°
2026-05-03 22:07 42.43888 -78.93091 28505 ft 360 kts 336°
2026-05-03 22:07 42.46226 -78.94220 28063 ft 353 kts 336°
2026-05-03 22:07 42.48513 -78.95323 27639 ft 346 kts 336°
2026-05-03 22:07 42.50774 -78.96415 27215 ft 344 kts 336°
2026-05-03 22:08 42.53020 -78.97504 26805 ft 342 kts 336°
2026-05-03 22:08 42.55259 -78.98595 26392 ft 340 kts 336°
2026-05-03 22:08 42.57478 -78.99681 25994 ft 338 kts 336°
2026-05-03 22:08 42.59686 -79.00762 25610 ft 336 kts 336°
2026-05-03 22:09 42.61884 -79.01832 25224 ft 335 kts 336°
2026-05-03 22:09 42.64075 -79.02896 24858 ft 333 kts 336°
2026-05-03 22:09 42.66250 -79.03951 24472 ft 331 kts 336°
2026-05-03 22:10 42.70568 -79.06047 23704 ft 328 kts 336°
2026-05-03 22:10 42.72684 -79.07078 23303 ft 326 kts 336°
2026-05-03 22:10 42.74813 -79.08121 22905 ft 324 kts 336°
2026-05-03 22:10 42.76927 -79.09160 22525 ft 322 kts 336°
2026-05-03 22:11 42.79031 -79.10190 22138 ft 321 kts 336°
2026-05-03 22:11 42.81125 -79.11212 21746 ft 319 kts 336°
2026-05-03 22:11 42.83205 -79.12229 21360 ft 317 kts 336°
2026-05-03 22:11 42.85271 -79.13241 20973 ft 315 kts 335°
2026-05-03 22:12 42.87325 -79.14247 20578 ft 313 kts 335°
2026-05-03 22:12 42.89371 -79.15251 20196 ft 311 kts 335°
2026-05-03 22:12 42.91401 -79.16248 19808 ft 309 kts 335°
2026-05-03 22:12 42.93420 -79.17238 19423 ft 308 kts 335°
2026-05-03 22:13 42.95432 -79.18221 19040 ft 306 kts 335°
2026-05-03 22:13 42.97431 -79.19204 18657 ft 304 kts 335°
2026-05-03 22:13 42.99418 -79.20184 18276 ft 303 kts 335°
2026-05-03 22:13 43.01395 -79.21158 17867 ft 301 kts 335°
2026-05-03 22:14 43.03339 -79.22116 17609 ft 301 kts 335°
2026-05-03 22:14 43.05298 -79.23083 17261 ft 299 kts 335°
2026-05-03 22:14 43.07246 -79.24046 16897 ft 297 kts 335°
2026-05-03 22:14 43.09179 -79.25004 16538 ft 294 kts 335°
2026-05-03 22:15 43.11100 -79.25957 16184 ft 293 kts 335°
2026-05-03 22:15 43.13005 -79.26904 15826 ft 290 kts 335°
2026-05-03 22:15 43.14897 -79.27846 15484 ft 288 kts 335°
2026-05-03 22:15 43.16775 -79.28779 15133 ft 286 kts 335°
2026-05-03 22:16 43.18644 -79.29703 14787 ft 284 kts 335°
2026-05-03 22:16 43.20496 -79.30617 14439 ft 282 kts 335°
2026-05-03 22:16 43.22334 -79.31526 14093 ft 280 kts 335°
2026-05-03 22:16 43.24159 -79.32431 13750 ft 278 kts 335°
2026-05-03 22:17 43.25970 -79.33334 13385 ft 276 kts 335°
2026-05-03 22:17 43.27771 -79.34234 13010 ft 275 kts 335°
2026-05-03 22:17 43.29562 -79.35127 12637 ft 273 kts 335°
2026-05-03 22:17 43.31241 -79.36091 12285 ft 269 kts 330°
2026-05-03 22:18 43.32927 -79.37176 12133 ft 268 kts 330°
2026-05-03 22:18 43.34621 -79.38267 12026 ft 269 kts 330°
2026-05-03 22:18 43.36314 -79.39355 11925 ft 268 kts 330°
2026-05-03 22:18 43.38016 -79.40450 11437 ft 273 kts 330°
2026-05-03 22:19 43.39721 -79.41548 11015 ft 269 kts 329°
2026-05-03 22:19 43.41414 -79.42636 10466 ft 266 kts 329°
2026-05-03 22:19 43.43083 -79.43706 9838 ft 263 kts 329°
2026-05-03 22:19 43.44727 -79.44760 9273 ft 258 kts 329°
2026-05-03 22:20 43.46349 -79.45803 8748 ft 256 kts 329°
2026-05-03 22:20 43.47954 -79.46838 8318 ft 251 kts 329°
2026-05-03 22:20 43.49463 -79.47801 8254 ft 227 kts 329°
2026-05-03 22:20 43.50851 -79.48683 8206 ft 216 kts 328°
2026-05-03 22:21 43.52205 -79.49558 8138 ft 215 kts 328°
2026-05-03 22:21 43.53553 -79.50433 8056 ft 213 kts 328°
2026-05-03 22:21 43.54875 -79.51292 7958 ft 213 kts 328°
2026-05-03 22:21 43.56207 -79.52153 7826 ft 210 kts 328°
2026-05-03 22:22 43.57539 -79.53009 7678 ft 212 kts 328°
2026-05-03 22:22 43.58975 -79.53548 7342 ft 223 kts 352°
2026-05-03 22:22 43.60511 -79.52979 7009 ft 240 kts 25°
2026-05-03 22:22 43.61772 -79.51390 6711 ft 250 kts 39°
2026-05-03 22:23 43.62967 -79.49635 6414 ft 251 kts 40°
2026-05-03 22:23 43.64154 -79.47880 6150 ft 250 kts 40°
2026-05-03 22:23 43.65346 -79.46125 5874 ft 250 kts 40°
2026-05-03 22:23 43.66508 -79.44420 5609 ft 244 kts 40°
2026-05-03 22:24 43.67663 -79.42733 5327 ft 240 kts 40°
2026-05-03 22:24 43.68797 -79.41075 5056 ft 235 kts 40°
2026-05-03 22:24 43.69913 -79.39441 4800 ft 232 kts 40°
2026-05-03 22:24 43.71018 -79.37819 4538 ft 231 kts 40°
2026-05-03 22:25 43.72117 -79.36209 4273 ft 230 kts 40°
2026-05-03 22:25 43.73209 -79.34610 4057 ft 228 kts 41°
2026-05-03 22:25 43.74290 -79.33032 3989 ft 228 kts 40°
2026-05-03 22:25 43.75380 -79.31438 4001 ft 228 kts 41°
2026-05-03 22:26 43.76545 -79.29985 3999 ft 221 kts 21°
2026-05-03 22:26 43.77949 -79.29231 4003 ft 213 kts
2026-05-03 22:26 43.79366 -79.29063 4003 ft 203 kts 347°
2026-05-03 22:26 43.80694 -79.29534 3999 ft 194 kts 328°
2026-05-03 22:27 43.81797 -79.30546 4002 ft 189 kts 311°
2026-05-03 22:27 43.82601 -79.31943 4003 ft 184 kts 296°
2026-05-03 22:27 43.83057 -79.33572 4001 ft 179 kts 281°
2026-05-03 22:27 43.83141 -79.35267 4001 ft 177 kts 266°
2026-05-03 22:28 43.82853 -79.36918 4000 ft 178 kts 250°
2026-05-03 22:28 43.82158 -79.38362 4002 ft 184 kts 233°
2026-05-03 22:28 43.81275 -79.39653 4002 ft 185 kts 232°
2026-05-03 22:28 43.80392 -79.40943 4003 ft 184 kts 232°
2026-05-03 22:29 43.79531 -79.42202 3958 ft 182 kts 232°
2026-05-03 22:29 43.78665 -79.43470 3756 ft 181 kts 232°
2026-05-03 22:29 43.77798 -79.44739 3524 ft 181 kts 232°
2026-05-03 22:29 43.76937 -79.45999 3269 ft 181 kts 232°
2026-05-03 22:30 43.76073 -79.47262 3060 ft 177 kts 232°
2026-05-03 22:30 43.75257 -79.48450 2803 ft 166 kts 232°
2026-05-03 22:30 43.74475 -79.49593 2566 ft 161 kts 231°
2026-05-03 22:30 43.73709 -79.50712 2360 ft 159 kts 232°
2026-05-03 22:31 43.72955 -79.51814 2137 ft 158 kts 232°
2026-05-03 22:31 43.72211 -79.52898 1907 ft 149 kts 230°
2026-05-03 22:31 43.71514 -79.53914 1717 ft 141 kts 231°
2026-05-03 22:31 43.70863 -79.54862 1522 ft 133 kts 231°
2026-05-03 22:32 43.70230 -79.55785 1349 ft 131 kts 229°
2026-05-03 22:32 43.69613 -79.56685 1193 ft 131 kts 230°
2026-05-03 22:32 43.68991 -79.57592 1017 ft 129 kts 230°
2026-05-03 22:32 43.68375 -79.58488 840 ft 129 kts 229°
2026-05-03 22:33 43.67758 -79.59386 675 ft 129 kts 230°
2026-05-03 22:33 43.67153 -79.60267 564 ft 120 kts 231°
2026-05-03 22:33 43.66702 -79.60928 566 ft 54 kts 227°
2026-05-03 22:33 43.66502 -79.61217 566 ft 35 kts 227°
2026-05-03 22:34 43.66408 -79.61470 558 ft 21 kts 250°
2026-05-03 22:34 43.66373 -79.61618 565 ft 12 kts 257°
2026-05-03 22:34 43.66394 -79.61714 561 ft 9 kts 311°
2026-05-03 22:34 43.66445 -79.61784 570 ft 15 kts 316°
2026-05-03 22:35 43.66525 -79.61887 568 ft 17 kts 317°
2026-05-03 22:35 43.66603 -79.61990 564 ft 10 kts 316°
2026-05-03 22:35 43.66645 -79.62018 566 ft 6 kts 359°
2026-05-03 22:35 43.66717 -79.61947 575 ft 16 kts 42°
2026-05-03 22:36 43.66797 -79.61848 572 ft 15 kts 43°
2026-05-03 22:36 43.66869 -79.61756 566 ft 13 kts 42°
2026-05-03 22:36 43.66935 -79.61672 566 ft 14 kts 42°
2026-05-03 22:36 43.67036 -79.61546 569 ft 21 kts 42°
2026-05-03 22:37 43.67140 -79.61412 571 ft 21 kts 43°
2026-05-03 22:37 43.67216 -79.61295 566 ft 13 kts 53°
2026-05-03 22:37 43.67283 -79.61267 564 ft 12 kts 324°
2026-05-03 22:37 43.67341 -79.61347 564 ft 12 kts 316°
2026-05-03 22:38 43.67421 -79.61452 565 ft 19 kts 316°
2026-05-03 22:38 43.67509 -79.61566 563 ft 19 kts 317°
2026-05-03 22:38 43.67588 -79.61666 571 ft 11 kts 317°
2026-05-03 22:38 43.67650 -79.61654 562 ft 10 kts 41°
2026-05-03 22:39 43.67699 -79.61584 566 ft 10 kts 47°
2026-05-03 22:39 43.67745 -79.61517 568 ft 9 kts 47°
2026-05-03 22:39 43.67788 -79.61455 566 ft 9 kts 46°
2026-05-03 22:39 43.67828 -79.61398 563 ft 8 kts 45°
2026-05-03 22:40 43.67873 -79.61369 564 ft 7 kts 17°
2026-05-03 22:40 43.67916 -79.61350 568 ft 5 kts 24°
2026-05-03 22:40 43.67931 -79.61307 569 ft 5 kts 82°
2026-05-03 22:40 43.67930 -79.61259 565 ft 4 kts 91°
2026-05-03 22:41 43.67930 -79.61255 566 ft 0 kts 91°